TimeCDT,TemperatureF,Dew PointF,Humidity,Sea Level PressureIn,VisibilityMPH,Wind Direction,Wind SpeedMPH,Gust SpeedMPH,PrecipitationIn,Events,Conditions,WindDirDegrees,DateUTC
12:15 AM,62.2,62.2,100,29.91,1.5,East,3.5,-,N/A,,Scattered Clouds,90,2013-07-02 05:15:00
12:35 AM,61.9,61.9,100,29.91,4.0,Calm,Calm,-,N/A,,Clear,0,2013-07-02 05:35:00
12:55 AM,62.1,62.1,100,29.91,5.0,Calm,Calm,-,N/A,,Clear,0,2013-07-02 05:55:00
1:15 AM,61.7,61.7,100,29.91,5.0,Calm,Calm,-,N/A,,Clear,0,2013-07-02 06:15:00
1:35 AM,61.7,61.7,100,29.91,1.0,Calm,Calm,-,N/A,,Overcast,0,2013-07-02 06:35:00
1:55 AM,61.3,61.3,100,29.91,2.0,Calm,Calm,-,N/A,,Overcast,0,2013-07-02 06:55:00
2:15 AM,60.6,60.6,100,29.91,1.2,Calm,Calm,-,N/A,,Mostly Cloudy,0,2013-07-02 07:15:00
2:35 AM,61.0,61.0,100,29.90,1.2,Calm,Calm,-,N/A,,Overcast,0,2013-07-02 07:35:00
2:55 AM,61.2,61.2,100,29.90,0.5,Calm,Calm,-,N/A,Fog,Fog,0,2013-07-02 07:55:00
3:15 AM,60.6,60.6,100,29.90,0.2,Calm,Calm,-,N/A,Fog,Fog,0,2013-07-02 08:15:00
3:35 AM,60.3,60.3,100,29.90,0.2,East,3.5,-,N/A,Fog,Fog,80,2013-07-02 08:35:00
3:55 AM,60.6,60.6,100,29.91,5.0,Calm,Calm,-,N/A,,Overcast,0,2013-07-02 08:55:00
4:15 AM,-9999,-9999,N/A,29.91,1.0,Calm,Calm,-,N/A,,Overcast,0,2013-07-02 09:15:00
4:35 AM,-9999,-9999,N/A,29.91,0.8,Calm,Calm,-,N/A,,Overcast,0,2013-07-02 09:35:00
4:55 AM,-9999,-9999,N/A,29.92,0.2,Calm,Calm,-,N/A,Fog,Fog,0,2013-07-02 09:55:00
5:15 AM,-9999,-9999,N/A,29.93,0.5,Calm,Calm,-,N/A,Fog,Fog,0,2013-07-02 10:15:00
5:35 AM,-9999,-9999,N/A,29.94,0.2,Calm,Calm,-,N/A,Fog,Fog,0,2013-07-02 10:35:00
5:55 AM,-9999,-9999,N/A,29.94,0.2,Calm,Calm,-,N/A,Fog,Fog,0,2013-07-02 10:55:00
6:15 AM,-9999,-9999,N/A,29.95,0.2,Calm,Calm,-,N/A,Fog,Fog,0,2013-07-02 11:15:00
6:35 AM,-9999,-9999,N/A,29.95,0.5,Calm,Calm,-,N/A,Fog,Fog,0,2013-07-02 11:35:00
6:55 AM,-9999,-9999,N/A,29.96,0.5,Calm,Calm,-,N/A,Fog,Fog,0,2013-07-02 11:55:00
7:15 AM,-9999,-9999,N/A,29.96,0.5,SE,3.5,-,N/A,Fog,Fog,140,2013-07-02 12:15:00
7:35 AM,-9999,-9999,N/A,29.97,1.5,Calm,Calm,-,N/A,,Overcast,0,2013-07-02 12:35:00
7:55 AM,-9999,-9999,N/A,29.97,1.5,Calm,Calm,-,N/A,,Overcast,0,2013-07-02 12:55:00
8:15 AM,-9999,-9999,N/A,29.98,2.5,Calm,Calm,-,N/A,,Overcast,0,2013-07-02 13:15:00
8:35 AM,-9999,-9999,N/A,29.97,3.0,Calm,Calm,-,N/A,,Overcast,0,2013-07-02 13:35:00
8:55 AM,66.6,66.6,100,29.98,5.0,Calm,Calm,-,N/A,,Overcast,0,2013-07-02 13:55:00
9:15 AM,68.7,68.0,98,29.98,5.0,Calm,Calm,-,N/A,,Mostly Cloudy,0,2013-07-02 14:15:00
9:35 AM,70.2,68.0,93,29.98,7.0,Calm,Calm,-,N/A,,Overcast,0,2013-07-02 14:35:00
9:55 AM,71.6,66.9,85,29.98,10.0,Calm,Calm,-,N/A,,Mostly Cloudy,0,2013-07-02 14:55:00
10:15 AM,72.5,64.9,77,29.98,10.0,SW,3.5,-,N/A,,Overcast,220,2013-07-02 15:15:00
10:35 AM,73.4,65.3,76,29.98,10.0,SSE,5.8,-,N/A,,Overcast,160,2013-07-02 15:35:00
10:55 AM,74.7,65.8,74,29.99,10.0,South,5.8,-,N/A,,Mostly Cloudy,180,2013-07-02 15:55:00
11:15 AM,76.1,65.7,70,29.99,10.0,South,9.2,-,N/A,,Mostly Cloudy,170,2013-07-02 16:15:00
11:35 AM,77.2,65.3,67,29.99,10.0,South,9.2,-,N/A,,Mostly Cloudy,170,2013-07-02 16:35:00
11:55 AM,78.1,64.9,64,29.99,10.0,South,6.9,-,N/A,,Mostly Cloudy,170,2013-07-02 16:55:00
12:15 PM,78.3,64.4,62,29.99,10.0,SSW,8.1,-,N/A,,Mostly Cloudy,210,2013-07-02 17:15:00
12:35 PM,78.3,63.7,61,29.98,10.0,SSW,10.4,-,N/A,,Scattered Clouds,200,2013-07-02 17:35:00
12:55 PM,78.3,64.4,62,29.98,10.0,West,9.2,-,N/A,,Mostly Cloudy,280,2013-07-02 17:55:00
1:15 PM,78.4,65.5,64,29.98,10.0,WSW,10.4,-,N/A,,Scattered Clouds,240,2013-07-02 18:15:00
1:35 PM,78.8,64.9,62,29.98,10.0,SSW,6.9,-,N/A,,Mostly Cloudy,210,2013-07-02 18:35:00
1:55 PM,79.2,64.6,61,29.98,10.0,WSW,10.4,-,N/A,,Mostly Cloudy,240,2013-07-02 18:55:00
2:15 PM,79.5,64.0,59,29.98,10.0,WSW,6.9,-,N/A,,Mostly Cloudy,250,2013-07-02 19:15:00
2:35 PM,80.1,63.9,58,29.98,10.0,WSW,8.1,-,N/A,,Scattered Clouds,240,2013-07-02 19:35:00
2:55 PM,80.8,62.4,53,29.98,10.0,WSW,12.7,16.1,N/A,,Scattered Clouds,240,2013-07-02 19:55:00
3:15 PM,81.1,61.7,51,29.98,10.0,SW,13.8,-,N/A,,Scattered Clouds,230,2013-07-02 20:15:00
3:35 PM,81.1,61.3,51,29.98,10.0,SSW,11.5,17.3,N/A,,Scattered Clouds,210,2013-07-02 20:35:00
3:55 PM,80.8,60.4,50,29.98,10.0,SSW,9.2,17.3,N/A,,Clear,210,2013-07-02 20:55:00
4:15 PM,80.6,59.9,49,29.97,10.0,SW,9.2,-,N/A,,Clear,220,2013-07-02 21:15:00
4:35 PM,80.8,60.3,49,29.98,10.0,SW,9.2,-,N/A,,Clear,230,2013-07-02 21:35:00
4:55 PM,80.4,60.8,51,29.98,10.0,SW,10.4,-,N/A,,Clear,230,2013-07-02 21:55:00
5:15 PM,80.8,60.6,50,29.98,10.0,WSW,10.4,-,N/A,,Clear,250,2013-07-02 22:15:00
5:35 PM,80.4,60.6,51,29.98,10.0,WSW,11.5,-,N/A,,Clear,240,2013-07-02 22:35:00
5:55 PM,80.1,60.6,51,29.98,10.0,SW,6.9,-,N/A,,Clear,220,2013-07-02 22:55:00
6:15 PM,79.7,60.8,52,29.98,10.0,SW,6.9,-,N/A,,Clear,230,2013-07-02 23:15:00
6:35 PM,79.3,60.6,53,29.99,10.0,SW,6.9,-,N/A,,Clear,230,2013-07-02 23:35:00
6:55 PM,78.8,60.4,53,29.99,10.0,SW,4.6,-,N/A,,Clear,220,2013-07-02 23:55:00
7:15 PM,77.9,61.2,56,30.01,10.0,WSW,4.6,-,N/A,,Clear,240,2013-07-03 00:15:00
7:35 PM,76.5,62.2,61,30.01,10.0,WSW,3.5,-,N/A,,Clear,240,2013-07-03 00:35:00
7:55 PM,74.8,62.4,65,30.01,10.0,Calm,Calm,-,N/A,,Clear,0,2013-07-03 00:55:00
8:15 PM,73.4,62.8,69,30.01,10.0,Calm,Calm,-,N/A,,Clear,0,2013-07-03 01:15:00
8:35 PM,71.8,63.7,76,30.02,10.0,Calm,Calm,-,N/A,,Clear,0,2013-07-03 01:35:00
8:55 PM,70.5,63.9,79,30.03,10.0,Calm,Calm,-,N/A,,Clear,0,2013-07-03 01:55:00
9:15 PM,70.2,63.9,80,30.04,10.0,Calm,Calm,-,N/A,,Clear,0,2013-07-03 02:15:00
9:35 PM,69.4,64.8,85,30.05,10.0,Calm,Calm,-,N/A,,Clear,0,2013-07-03 02:35:00
9:55 PM,68.4,68.4,100,30.05,10.0,Calm,Calm,-,N/A,,Clear,0,2013-07-03 02:55:00
10:15 PM,67.8,67.8,100,30.05,10.0,Calm,Calm,-,N/A,,Clear,0,2013-07-03 03:15:00
10:35 PM,67.5,67.5,100,30.05,10.0,Calm,Calm,-,N/A,,Clear,0,2013-07-03 03:35:00
10:55 PM,66.6,66.6,100,30.05,10.0,Calm,Calm,-,N/A,,Clear,0,2013-07-03 03:55:00
11:15 PM,66.0,66.0,100,30.04,10.0,Calm,Calm,-,N/A,,Clear,0,2013-07-03 04:15:00
11:35 PM,66.2,66.2,100,30.05,10.0,Calm,Calm,-,N/A,,Clear,0,2013-07-03 04:35:00
11:55 PM,66.0,66.0,100,30.05,7.0,Calm,Calm,-,N/A,,Clear,0,2013-07-03 04:55:00